Home   Weather   Płock   Past weeks

Flag for Poland Past Weather in Płock, Poland — Yesterday and Last 2 Weeks

Now
55 °F

Cool.


Feels Like: 55 °F
Forecast: 54 / 76 °F
Wind: 1 mph from Southeast

Location: Plock

Current Time: Sep 1, 2016 at 3:54:02 AM

Latest Report: Sep 1, 2016 at 3:00 AM


Visibility: 13 mi

Pressure: 30.21 "Hg

Humidity: 84%

Dew Point: 50 °F

Location of PłockLocation

Past Weather in Płock — Graph

°F

Płock Temperature Yesterday

Maximum temperature yesterday: 75 °F (at 4:00 PM)
Minimum temperature yesterday: 47 °F (at 6:00 AM)
Average temperature yesterday: 61 °F

High & Low Weather Summary for the Past Weeks

 TemperatureHumidityPressure
High88 °F (Aug 28, 4:00 PM)98% (Aug 23, 7:00 AM)30.30 "Hg (Aug 23, 7:00 AM)
Low47 °F (Aug 31, 6:00 AM)28% (Aug 26, 4:00 PM)29.81 "Hg (Aug 18, 4:00 PM)
Average67 °F65%30.04 "Hg
* Reported Aug 17 2:00 AM — Sep 1 2:00 AM, Płock, Weather by CustomWeather, © 2016

Note: Actual official high and low records may vary slightly from our data, if they occured in-between our weather recording intervals... More about our weather records

Advertising

Płock Weather History for the Previous 24 Hours

Scroll right to see more
 ConditionsComfort  
Time TempWeatherWind HumidityBarometerVisibility
2:00 AM
Thu, Sep 1
56 °FCool.2 mph81%30.21 "Hg14 mi
1:00 AM57 °FCool.1 mph77%30.21 "Hg14 mi
12:00 AM59 °FCool.2 mph72%30.20 "Hg14 mi
11:00 PM
Wed, Aug 31
59 °FCool.2 mph74%30.20 "Hg12 mi
10:00 PM61 °FCool.1 mph68%30.20 "Hg9 mi
9:00 PM63 °FMild.1 mph64%30.20 "Hg10 mi
8:00 PM65 °FMild.1 mph60%30.20 "Hg19 mi
7:00 PM72 °FMild.No wind46%30.19 "Hg31 mi
6:00 PM74 °FMild.1 mph41%30.20 "Hg25 mi
5:00 PM75 °FMild.2 mph41%30.21 "Hg22 mi
4:00 PM75 °FMild.2 mph43%30.22 "Hg17 mi
3:00 PM74 °FMild.2 mph44%30.23 "Hg22 mi
2:00 PM73 °FMild.2 mph43%30.24 "Hg19 mi
1:00 PM71 °FMild.3 mph49%30.26 "Hg16 mi
12:00 PM69 °FMild.3 mph52%30.27 "Hg19 mi
11:00 AM67 °FMild.3 mph55%30.28 "Hg18 mi
10:00 AM65 °FMild.3 mph59%30.28 "Hg19 mi
9:00 AM62 °FMild.5 mph62%30.28 "Hg22 mi
8:00 AM56 °FCool.1 mph82%30.29 "Hg12 mi
7:00 AM50 °FCool.No wind94%30.29 "Hg11 mi
6:00 AM47 °FCool.No wind93%30.29 "Hg7 mi
5:00 AM47 °FCool.1 mph92%30.28 "Hg13 mi
4:00 AM48 °FCool.No wind91%30.28 "Hg14 mi
3:00 AM48 °FCool.No wind87%30.28 "Hg19 mi
Weather by CustomWeather, © 2016

See weather overviewHow to use our weather pages